Regional Weather Roundup
Issued by NWS Binghamton, NY

Home | Current Version | Previous Version | Text Only | Print | Product List | Glossary On
Versions: 1 2 3 4 5 6 7 8 9 10 11 12 13 14 15 16 17 18 19 20 21 22 23 24 25 26 27 28 29 30 31 32 33 34 35 36 37 38 39 40 41 42 43 44 45 46 47 48 49 50
000
ASUS41 KBGM 310610
RWRBGM
RWRBGM
BINGHAMTON REGIONAL WEATHER ROUNDUP
NATIONAL WEATHER SERVICE BINGHAMTON NY
200 AM EDT MON AUG 31 2015

Note: "fair" indicates few or no clouds below 12,000 feet with no
significant weather and/or obstructions to visibility.

* = Station(s) that does not report precipitation, such as rain,
snow, etc, also no thunder or fog.

!NYZ009-015>018-022>025-036-037-044>046-055>057-062-310700
...CENTRAL NEW YORK...

CITY           SKY/WX    TMP DP  RH WIND       PRES   REMARKS
BINGHAMTON     FAIR      65  64  97 MISG      30.08F
CORTLAND       FAIR      61  61 100 CALM      30.08S FOG
DANSVILLE      MOCLDY    67  64  90 SE7       30.05F
ELMIRA         FOG       63  63 100 W3        30.06S VSB 1/4
ITHACA         MOCLDY    62  62 100 CALM      30.08S FOG
HORNELL        FOG       64  63  94 CALM      30.11F VSB 1/2
MONTICELLO     FAIR      66  64  94 CALM      30.08F
NORWICH        MOCLDY    61  61 100 CALM      30.07F FOG
ONEONTA        CLEAR     63  63 100 CALM      30.08F FOG
PENN YAN       FAIR      67  66  97 SW5       30.05F FOG
ROME           FAIR      61  60  97 SE3       30.03F
SIDNEY         CLOUDY    64  64 100 CALM      30.06F FOG
SYRACUSE       FAIR      65  64  97 CALM      30.01F
$$

!PAZ038>040-043-044-047-048-072-310700
...NORTHEAST PENNSYLVANIA...

CITY           SKY/WX    TMP DP  RH WIND       PRES   REMARKS
HAZLETON       FAIR      66  64  94 CALM      30.13F FOG
SCRANTON       FAIR      71  66  84 CALM      30.07S
TOWANDA*       CLEAR     64  64 100 MISG      30.07F
$$
&&
KEY
WCI = WIND CHILL INDEX
VSB = VISIBILITY
HX  = HEAT INDEX
$$



USA.gov is the U.S. government's official web portal to all federal, state and local government web resources and services.